TimeCST,TemperatureF,Dew PointF,Humidity,Sea Level PressureIn,VisibilityMPH,Wind Direction,Wind SpeedMPH,Gust SpeedMPH,PrecipitationIn,Events,Conditions,WindDirDegrees,DateUTC
12:15 AM,56.3,47.7,73,30.16,10.0,North,9.2,-,N/A,,Overcast,360,2013-01-02 06:15:00
12:35 AM,55.8,45.5,68,30.15,10.0,NNE,8.1,-,N/A,,Overcast,20,2013-01-02 06:35:00
12:55 AM,55.4,45.0,68,30.16,10.0,North,6.9,-,N/A,,Overcast,360,2013-01-02 06:55:00
1:15 AM,55.0,45.3,70,30.17,10.0,North,9.2,-,N/A,,Overcast,350,2013-01-02 07:15:00
1:35 AM,54.7,45.1,70,30.17,10.0,North,9.2,-,N/A,Rain,Light Rain,350,2013-01-02 07:35:00
1:55 AM,54.5,44.8,70,30.17,10.0,North,9.2,-,N/A,,Overcast,360,2013-01-02 07:55:00
2:15 AM,54.0,45.3,73,30.16,10.0,North,9.2,-,N/A,Rain,Light Rain,360,2013-01-02 08:15:00
2:35 AM,53.6,45.7,75,30.16,10.0,North,6.9,-,N/A,,Light Drizzle,360,2013-01-02 08:35:00
2:55 AM,53.2,45.5,75,30.17,10.0,North,9.2,-,N/A,Rain,Light Rain,350,2013-01-02 08:55:00
3:15 AM,52.7,45.9,78,30.17,10.0,North,10.4,-,N/A,,Light Drizzle,360,2013-01-02 09:15:00
3:35 AM,52.7,45.9,78,30.17,10.0,North,5.8,-,N/A,,Overcast,360,2013-01-02 09:35:00
3:55 AM,51.8,46.0,81,30.18,10.0,North,9.2,-,N/A,Rain,Light Rain,360,2013-01-02 09:55:00
4:15 AM,51.1,46.4,84,30.17,10.0,North,11.5,-,0.01,Rain,Rain,360,2013-01-02 10:15:00
4:35 AM,49.5,43.7,81,30.18,10.0,North,10.4,18.4,0.01,Rain,Light Rain,10,2013-01-02 10:35:00
4:55 AM,48.6,43.2,82,30.18,10.0,North,6.9,-,0.03,Rain,Light Rain,360,2013-01-02 10:55:00
5:15 AM,48.2,43.0,82,30.21,10.0,North,6.9,-,N/A,Rain,Rain,350,2013-01-02 11:15:00
5:35 AM,48.0,43.0,83,30.21,10.0,North,8.1,-,0.01,Rain,Light Rain,360,2013-01-02 11:35:00
5:55 AM,47.7,43.0,84,30.20,10.0,North,8.1,-,0.01,Rain,Rain,10,2013-01-02 11:55:00
6:15 AM,47.3,43.0,85,30.20,10.0,North,8.1,-,0.01,Rain,Light Rain,10,2013-01-02 12:15:00
6:35 AM,47.3,43.0,85,30.21,10.0,NNE,8.1,-,0.02,Rain,Rain,20,2013-01-02 12:35:00
6:55 AM,47.3,42.8,84,30.22,10.0,North,6.9,-,0.02,Rain,Light Rain,10,2013-01-02 12:55:00
7:15 AM,46.8,42.8,86,30.23,10.0,NNE,6.9,-,0.01,Rain,Rain,20,2013-01-02 13:15:00
7:35 AM,46.6,42.8,87,30.24,10.0,North,8.1,-,0.02,Rain,Light Rain,10,2013-01-02 13:35:00
7:55 AM,46.6,42.8,87,30.24,10.0,NNE,10.4,-,0.04,Rain,Light Rain,20,2013-01-02 13:55:00
8:15 AM,46.4,42.3,85,30.25,10.0,North,9.2,-,N/A,,Light Drizzle,10,2013-01-02 14:15:00
8:35 AM,46.6,42.6,86,30.27,10.0,North,6.9,-,N/A,,Overcast,10,2013-01-02 14:35:00
8:55 AM,46.6,42.1,84,30.29,10.0,North,8.1,-,N/A,,Overcast,360,2013-01-02 14:55:00
9:15 AM,46.8,42.3,84,30.29,10.0,North,5.8,-,N/A,,Overcast,360,2013-01-02 15:15:00
9:35 AM,46.6,42.3,85,30.29,10.0,North,8.1,-,N/A,Rain,Rain,360,2013-01-02 15:35:00
9:55 AM,46.2,41.5,84,30.30,10.0,North,9.2,-,N/A,Rain,Rain,360,2013-01-02 15:55:00
10:15 AM,46.2,41.9,85,30.29,10.0,North,9.2,-,N/A,,Drizzle,360,2013-01-02 16:15:00
10:35 AM,46.4,41.4,83,30.30,10.0,North,8.1,-,N/A,,Drizzle,360,2013-01-02 16:35:00
10:55 AM,45.5,40.3,82,30.29,10.0,North,13.8,19.6,N/A,,Overcast,360,2013-01-02 16:55:00
11:15 AM,45.5,41.0,84,30.28,10.0,North,9.2,-,N/A,,Overcast,10,2013-01-02 17:15:00
11:35 AM,45.9,41.4,84,30.28,10.0,North,12.7,16.1,N/A,Rain,Light Rain,350,2013-01-02 17:35:00
11:55 AM,45.5,41.0,84,30.27,10.0,North,10.4,17.3,N/A,,Overcast,360,2013-01-02 17:55:00
12:15 PM,45.0,40.3,84,30.26,10.0,North,12.7,19.6,N/A,,Light Drizzle,360,2013-01-02 18:15:00
12:35 PM,45.0,40.3,84,30.24,10.0,North,11.5,18.4,N/A,,Overcast,360,2013-01-02 18:35:00
12:55 PM,45.0,40.5,84,30.23,10.0,North,12.7,17.3,N/A,,Overcast,350,2013-01-02 18:55:00
1:15 PM,44.6,40.1,84,30.22,10.0,North,9.2,-,N/A,,Overcast,350,2013-01-02 19:15:00
1:35 PM,44.2,39.9,85,30.22,10.0,North,9.2,-,N/A,,Overcast,360,2013-01-02 19:35:00
1:55 PM,44.2,39.2,82,30.21,10.0,North,11.5,18.4,N/A,,Drizzle,350,2013-01-02 19:55:00
2:15 PM,43.9,39.2,84,30.21,10.0,North,11.5,-,N/A,,Overcast,350,2013-01-02 20:15:00
2:35 PM,44.1,38.8,82,30.21,10.0,North,8.1,-,N/A,,Overcast,350,2013-01-02 20:35:00
2:55 PM,43.7,39.2,84,30.21,7.0,North,8.1,-,N/A,,Drizzle,360,2013-01-02 20:55:00
3:15 PM,43.3,39.0,85,30.22,7.0,North,11.5,-,N/A,,Drizzle,350,2013-01-02 21:15:00
3:35 PM,43.7,40.1,87,30.23,7.0,NNW,8.1,-,0.01,,Drizzle,330,2013-01-02 21:35:00
3:55 PM,43.5,40.1,88,30.23,5.0,NNW,10.4,-,0.03,Rain,Rain,340,2013-01-02 21:55:00
4:15 PM,43.3,40.3,89,30.24,4.0,NNW,10.4,-,0.01,Rain,Rain,340,2013-01-02 22:15:00
4:35 PM,43.2,40.3,90,30.24,5.0,North,8.1,-,0.03,Rain,Rain,350,2013-01-02 22:35:00
4:55 PM,42.3,39.4,90,30.25,5.0,NNW,9.2,-,0.05,Rain,Rain,340,2013-01-02 22:55:00
5:15 PM,42.3,39.6,90,30.24,5.0,North,8.1,-,0.02,Rain,Rain,350,2013-01-02 23:15:00
5:35 PM,42.4,39.7,90,30.24,7.0,North,6.9,-,0.03,Rain,Rain,360,2013-01-02 23:35:00
5:55 PM,42.8,40.1,90,30.25,7.0,NNW,5.8,-,0.04,Rain,Light Rain,340,2013-01-02 23:55:00
6:15 PM,43.0,40.5,91,30.25,5.0,NNW,11.5,-,0.01,Rain,Rain,340,2013-01-03 00:15:00
6:35 PM,42.3,39.7,91,30.25,7.0,North,8.1,-,0.03,,Drizzle,360,2013-01-03 00:35:00
6:55 PM,42.6,40.1,91,30.26,7.0,North,6.9,-,0.03,,Drizzle,350,2013-01-03 00:55:00
7:15 PM,42.4,39.9,91,30.26,7.0,North,5.8,-,0.01,,Drizzle,10,2013-01-03 01:15:00
7:35 PM,42.3,39.6,90,30.26,7.0,North,4.6,-,0.01,,Drizzle,10,2013-01-03 01:35:00
7:55 PM,42.3,39.7,91,30.26,7.0,North,6.9,-,0.02,Rain,Light Rain,10,2013-01-03 01:55:00
8:15 PM,42.1,39.4,90,30.28,7.0,North,6.9,-,0.01,Rain,Rain,10,2013-01-03 02:15:00
8:35 PM,41.9,39.4,91,30.29,7.0,NNW,9.2,-,0.01,,Drizzle,340,2013-01-03 02:35:00
8:55 PM,41.9,39.2,90,30.30,7.0,NNW,13.8,17.3,0.01,,Drizzle,340,2013-01-03 02:55:00
9:15 PM,41.7,39.2,91,30.31,7.0,NNW,11.5,-,N/A,,Light Drizzle,340,2013-01-03 03:15:00
9:35 PM,41.9,39.0,90,30.30,7.0,North,10.4,-,N/A,,Overcast,350,2013-01-03 03:35:00
9:55 PM,41.9,39.0,90,30.29,7.0,North,5.8,-,N/A,,Overcast,360,2013-01-03 03:55:00
10:15 PM,42.1,39.2,90,30.30,7.0,NNW,9.2,-,N/A,,Overcast,340,2013-01-03 04:15:00
10:35 PM,42.4,39.6,90,30.30,7.0,North,6.9,-,N/A,,Overcast,350,2013-01-03 04:35:00
10:55 PM,42.3,39.2,89,30.29,7.0,North,5.8,-,N/A,,Overcast,350,2013-01-03 04:55:00
11:15 PM,42.1,38.5,87,30.30,10.0,North,10.4,-,N/A,,Overcast,350,2013-01-03 05:15:00
11:35 PM,42.3,38.8,88,30.29,7.0,North,8.1,-,N/A,,Overcast,350,2013-01-03 05:35:00
11:55 PM,42.1,38.3,86,30.29,10.0,North,6.9,-,N/A,,Overcast,350,2013-01-03 05:55:00